Location: Krakow
(50.0830°N, 19.9170°E)
Time: 05:44:15
(UTC+01:00)

Courier 1B Rocket - Pass Details

Date: 16 December 2023
Orbit: 920 x 1202 km, 28.2° (Epoch: 29 February)

Event Time Altitude Azimuth Distance (km) Brightness Sun altitude
Rises 07:54:30 0° 218° (SW) 4,056 8.3 1.8°
Reaches altitude 10° 08:00:12 10° 185° (S) 3,042 8.2 2.5°
Maximum altitude 08:01:58 11° 171° (S) 2,954 8.4 2.7°
Drops below altitude 10° 08:03:42 10° 158° (SSE) 3,001 8.9 2.9°
Sets 08:09:09 0° 124° (SE) 3,882 10.5 3.6°
